Waarnemingen

Advertentie
Mijn weer
Jerez de los Caballeros, Spanje (8337): temperatuur & dauwpunt: 20.04.2018 23:00:00 - 26.04.2018 23:00:00 (CEST)Jerez de los Caballeros, Spanje (8337): windsnelheid & windstoten: 20.04.2018 23:00:00 - 26.04.2018 23:00:00 (CEST)Jerez de los Caballeros, Spanje (8337): windrichting: 20.04.2018 23:00:00 - 26.04.2018 23:00:00 (CEST)Jerez de los Caballeros, Spanje (8337): luchtdruk: 20.04.2018 23:00:00 - 26.04.2018 23:00:00 (CEST)Jerez de los Caballeros, Spanje (8337): zicht: 20.04.2018 23:00:00 - 26.04.2018 23:00:00 (CEST)Jerez de los Caballeros, Spanje (8337): Zonneschijnduur: 20.04.2018 23:00:00 - 26.04.2018 23:00:00 (CEST)Jerez de los Caballeros, Spanje (8337): neerslag: 20.04.2018 23:00:00 - 26.04.2018 23:00:00 (CEST)
Datum & Tijd tt [°C] td [°C] ff [km/u] ff [kn] fx [km/u] fx [kn] dd ppp [hPa] vv [km] sd [min] rr [mm]
26.04.2018 23:00:00 - - - - - - - - - - -
26.04.2018 22:00:00 20,3 13,8 14 8 18 10 ZW 1015,3 20 0 0,0
26.04.2018 21:00:00 21,9 13,3 15 8 29 16 WZW 1014,8 20 40 0,0
26.04.2018 20:00:00 24,3 14,7 20 11 30 16 WZW 1014,1 20 60 -
26.04.2018 19:00:00 25,4 15,4 22 12 32 17 W 1013,9 20 60 0,0
26.04.2018 18:00:00 26,1 15,8 23 12 31 17 WZW 1013,6 20 60 0,0
26.04.2018 17:00:00 26,6 16,0 21 11 31 17 WZW 1013,8 20 60 0,0
26.04.2018 16:00:00 27,0 13,0 11 6 18 10 ZW 1014,2 20 60 0,0
26.04.2018 15:00:00 26,4 13,9 10 6 16 9 ZW 1014,8 20 60 0,0
26.04.2018 14:00:00 25,4 11,9 4 2 17 9 ZO 1015,1 20 60 -
26.04.2018 13:00:00 23,3 12,0 13 7 20 11 ONO 1015,5 12 60 0,0
26.04.2018 12:00:00 21,8 13,0 9 5 14 8 ONO 1015,9 20 60 0,0
26.04.2018 11:00:00 19,8 14,4 4 2 11 6 OZO 1016,1 17 60 0,0
26.04.2018 10:00:00 16,3 13,3 8 4 11 6 O 1016,5 12 60 0,0
26.04.2018 09:00:00 15,0 12,1 3 2 6 3 W 1016,6 13 51 0,0
26.04.2018 08:00:00 13,4 11,2 4 2 7 4 ONO 1016,4 15 0 -
26.04.2018 07:00:00 13,5 11,2 6 3 12 6 WZW 1016,1 14 0 0,0
26.04.2018 06:00:00 13,9 11,4 10 5 13 7 ZW 1015,9 13 0 0,0
26.04.2018 05:00:00 15,0 11,6 8 4 19 11 WZW 1016,1 18 0 0,0
26.04.2018 04:00:00 15,8 12,3 13 7 21 11 W 1016,1 16 0 0,0
26.04.2018 03:00:00 16,8 13,8 8 4 18 10 W 1016,5 14 0 0,0
26.04.2018 02:00:00 18,0 14,3 11 6 17 9 WNW 1016,3 15 0 -
26.04.2018 01:00:00 18,3 14,8 10 5 21 11 O 1016,7 16 0 0,0
26.04.2018 00:00:00 19,8 14,6 14 8 20 11 ZW 1015,4 17 0 0,0
25.04.2018 23:00:00 21,0 13,7 13 7 22 12 WZW 1014,9 20 0 0,0
25.04.2018 22:00:00 23,0 14,0 16 9 26 14 WNW 1014,2 20 0 0,0
25.04.2018 21:00:00 24,2 10,2 12 6 24 13 WNW 1013,3 20 22 0,0
25.04.2018 20:00:00 26,0 9,8 16 9 27 15 NW 1012,8 20 60 -
25.04.2018 19:00:00 27,1 9,9 13 7 27 14 NNW 1012,5 20 60 0,0
25.04.2018 18:00:00 27,4 9,7 14 8 30 16 N 1012,4 20 60 0,0
25.04.2018 17:00:00 27,1 8,5 20 11 33 18 NNO 1012,8 20 60 0,0
25.04.2018 16:00:00 26,8 8,3 23 12 32 17 NO 1013,3 20 60 0,0
25.04.2018 15:00:00 25,9 10,5 19 10 27 15 NO 1013,4 20 60 0,0
25.04.2018 14:00:00 24,9 15,0 19 10 28 15 ONO 1014,0 20 60 -
25.04.2018 13:00:00 23,9 14,3 7 4 16 9 O 1014,6 20 60 0,0
25.04.2018 12:00:00 22,1 13,9 7 4 17 9 O 1015,2 18 60 0,0
25.04.2018 11:00:00 18,9 12,4 9 5 15 8 O 1015,8 20 60 0,0
25.04.2018 10:00:00 15,5 12,2 10 5 13 7 O 1016,0 18 60 0,0
25.04.2018 09:00:00 12,7 10,9 4 2 10 5 OZO 1016,2 8 48 0,0
25.04.2018 08:00:00 11,8 10,4 4 2 10 5 N - - 0 -
25.04.2018 07:00:00 11,4 10,1 10 5 19 10 ONO - - 0 0,0
25.04.2018 06:00:00 12,2 10,0 6 4 11 6 OZO 1015,0 11 0 0,0
25.04.2018 05:00:00 13,9 10,9 6 3 11 6 ONO 1014,5 18 0 0,0
25.04.2018 04:00:00 13,0 10,8 9 5 11 6 O 1014,1 17 0 0,0
25.04.2018 03:00:00 14,5 11,1 5 3 9 5 OZO 1014,6 20 0 0,0
25.04.2018 02:00:00 15,2 10,8 4 2 9 5 ZZO 1015,1 20 0 -
25.04.2018 01:00:00 15,2 11,6 6 3 13 7 O 1015,1 20 0 0,0
25.04.2018 00:00:00 17,0 11,4 2 1 9 5 N 1014,8 20 0 0,0
24.04.2018 23:00:00 17,8 11,6 6 3 8 5 ONO 1014,7 20 0 0,0
24.04.2018 22:00:00 20,8 8,4 3 2 8 4 NNO 1013,6 20 0 0,0
24.04.2018 21:00:00 21,7 8,9 3 1 12 6 ONO 1013,0 20 11 0,0
24.04.2018 20:00:00 22,6 11,3 11 6 20 11 O 1012,7 20 55 -
24.04.2018 19:00:00 22,8 10,5 16 9 22 12 O 1012,5 17 53 0,0
24.04.2018 18:00:00 22,9 10,3 14 7 23 12 O 1012,4 20 60 0,0
24.04.2018 17:00:00 22,7 11,4 16 9 25 14 ONO 1012,5 20 27 0,0
24.04.2018 16:00:00 23,4 11,8 19 11 30 16 O 1012,7 15 19 0,0
24.04.2018 15:00:00 24,2 11,6 12 7 19 10 ONO 1012,7 14 48 0,0
24.04.2018 14:00:00 23,2 10,9 6 3 16 9 O 1013,0 16 40 -
24.04.2018 13:00:00 21,3 10,4 14 8 32 17 ONO 1013,6 20 52 0,0
24.04.2018 12:00:00 20,6 11,8 17 9 42 23 O 1013,4 14 26 0,0
24.04.2018 11:00:00 18,4 11,9 26 14 46 25 O 1013,2 20 0 0,0
24.04.2018 10:00:00 17,6 11,4 13 7 19 10 O 1013,1 20 0 0,0
24.04.2018 09:00:00 17,2 11,0 13 7 23 12 ONO 1013,5 20 0 0,0
24.04.2018 08:00:00 16,9 11,6 16 9 21 11 ONO 1013,3 13 0 -
24.04.2018 07:00:00 17,3 11,1 15 8 20 11 ONO 1012,6 20 0 0,0
24.04.2018 06:00:00 17,7 11,0 14 8 22 12 O 1012,4 18 0 0,0
24.04.2018 05:00:00 18,2 11,2 13 7 29 16 ONO 1012,3 20 0 0,0
24.04.2018 04:00:00 17,7 11,9 22 12 27 15 ONO 1012,4 20 0 0,0
24.04.2018 03:00:00 17,7 11,9 10 5 15 8 O 1012,4 20 0 0,0
24.04.2018 02:00:00 18,6 11,9 13 7 22 12 O 1012,5 20 0 -
24.04.2018 01:00:00 19,2 11,8 19 10 30 16 NO 1013,0 20 0 0,0
24.04.2018 00:00:00 18,7 12,0 16 9 25 13 ONO 1013,4 20 0 0,0
23.04.2018 23:00:00 19,6 11,7 6 4 17 9 ONO 1013,3 20 0 0,0
23.04.2018 22:00:00 20,6 11,0 9 5 26 14 O 1012,2 20 0 0,0
23.04.2018 21:00:00 21,6 10,8 18 10 33 18 NO 1011,5 20 0 0,0
23.04.2018 20:00:00 22,3 12,0 21 12 41 22 NNO 1011,2 20 7 -
23.04.2018 19:00:00 23,1 12,4 30 16 37 20 NNO 1010,9 20 51 0,0
23.04.2018 18:00:00 24,0 13,3 28 15 41 22 NO 1010,9 17 60 0,0
23.04.2018 17:00:00 24,5 12,7 25 13 40 22 NO 1011,2 15 60 0,0
23.04.2018 16:00:00 24,3 13,0 29 15 46 25 ONO 1011,6 18 60 0,0
23.04.2018 15:00:00 24,7 13,3 27 14 52 28 ONO 1012,1 20 59 0,0
23.04.2018 14:00:00 24,5 13,1 27 15 39 21 ONO 1012,7 20 60 -
23.04.2018 13:00:00 23,5 11,6 22 12 31 17 NO 1013,5 20 60 0,0
23.04.2018 12:00:00 22,1 11,4 9 5 14 8 ONO 1013,9 20 60 0,0
23.04.2018 11:00:00 20,1 12,3 7 4 16 9 O 1013,9 20 60 0,0
23.04.2018 10:00:00 18,0 12,0 9 5 24 13 ONO 1014,1 20 37 0,0
23.04.2018 09:00:00 16,3 9,9 18 10 39 21 O 1014,0 20 0 0,0
23.04.2018 08:00:00 16,9 9,8 35 19 56 30 NO 1013,8 20 0 -
23.04.2018 07:00:00 16,1 10,9 34 19 49 26 ONO 1014,2 20 0 0,0
23.04.2018 06:00:00 15,8 11,3 46 25 58 32 ONO 1013,8 20 0 0,0
23.04.2018 05:00:00 15,5 12,2 34 19 56 31 ONO 1015,0 20 0 1,0
23.04.2018 04:00:00 15,6 13,3 22 12 34 18 NO 1015,2 6 0 0,4
23.04.2018 03:00:00 15,4 13,1 4 2 23 13 ZZO 1015,7 11 0 0,0
23.04.2018 02:00:00 15,2 13,1 20 11 30 16 WZW 1015,0 10 0 -
23.04.2018 01:00:00 15,8 13,0 16 9 26 14 ZW 1014,9 13 0 0,0
23.04.2018 00:00:00 16,5 13,1 14 8 25 14 ZW 1015,1 19 0 0,0
22.04.2018 23:00:00 16,5 13,6 12 7 16 8 WZW 1014,3 18 0 0,0
22.04.2018 22:00:00 17,7 13,9 9 5 18 10 W 1012,9 20 0 0,0
22.04.2018 21:00:00 19,0 14,0 11 6 21 12 ZW 1012,6 20 9 0,0
22.04.2018 20:00:00 20,6 14,0 17 9 26 14 WZW 1012,0 20 57 -
22.04.2018 19:00:00 22,5 14,6 18 10 27 14 WZW 1011,5 20 45 0,0
22.04.2018 18:00:00 23,7 13,6 12 6 17 9 ZW 1010,8 16 43 0,0
22.04.2018 17:00:00 22,7 12,0 4 2 11 6 OZO 1011,0 20 28 0,0
22.04.2018 16:00:00 21,4 12,2 10 5 21 12 ONO 1011,7 20 15 0,0
22.04.2018 15:00:00 20,8 12,2 15 8 27 15 ONO 1012,0 20 17 0,0
22.04.2018 14:00:00 20,1 12,8 18 10 31 17 NO 1012,3 20 47 -
22.04.2018 13:00:00 19,4 12,8 19 10 33 18 ONO 1012,6 20 51 0,0
22.04.2018 12:00:00 18,4 11,7 25 13 32 18 ONO 1013,0 20 60 0,0
22.04.2018 11:00:00 16,5 12,0 20 11 29 15 ONO 1013,3 20 45 0,0
22.04.2018 10:00:00 14,2 10,8 22 12 28 15 NO 1013,8 20 0 0,0
22.04.2018 09:00:00 13,7 10,5 23 12 37 20 ONO 1014,1 20 0 0,0
22.04.2018 08:00:00 13,9 10,9 31 17 50 27 ONO 1012,9 20 0 -
22.04.2018 07:00:00 13,5 10,6 27 15 38 21 ONO 1013,0 20 0 0,0
22.04.2018 06:00:00 13,1 10,8 32 17 50 27 ONO 1013,1 20 0 0,2
22.04.2018 05:00:00 12,9 10,6 36 19 45 24 ONO 1013,7 20 0 0,4
22.04.2018 04:00:00 13,4 10,4 32 17 46 25 ONO 1014,8 8 0 0,4
22.04.2018 03:00:00 13,6 11,3 17 9 46 25 O 1015,7 7 0 0,6
22.04.2018 02:00:00 13,7 11,6 32 17 51 28 ONO 1015,6 20 0 -
22.04.2018 01:00:00 14,0 11,3 37 20 61 33 ONO 1015,4 20 0 0,0
22.04.2018 00:00:00 14,8 10,6 39 21 54 29 NO 1014,7 20 0 0,2
21.04.2018 23:00:00 14,6 11,0 22 12 58 32 OZO 1015,7 20 0 1,8
21.04.2018 22:00:00 15,0 13,1 33 18 45 25 O 1015,9 13 0 1,6
21.04.2018 21:00:00 15,3 13,2 12 7 39 21 NNO 1015,1 16 0 2,0
21.04.2018 20:00:00 15,6 13,7 11 6 19 10 NNO 1015,0 2,5 0 -
21.04.2018 19:00:00 16,6 13,4 12 6 18 10 WNW 1013,9 20 3 0,2
21.04.2018 18:00:00 17,1 13,1 3 2 38 20 NNW 1014,2 20 6 1,4
21.04.2018 17:00:00 16,8 11,7 29 16 62 34 ONO 1012,8 20 4 0,0
21.04.2018 16:00:00 14,9 12,2 41 22 59 32 ONO 1012,8 13 2 0,2
21.04.2018 15:00:00 14,8 12,1 34 19 46 25 ONO 1014,8 20 6 0,4
21.04.2018 14:00:00 14,4 11,9 6 3 32 17 NNW 1016,7 19 0 -
21.04.2018 13:00:00 14,6 12,4 26 14 39 21 W 1016,9 18 0 0,4
21.04.2018 12:00:00 15,1 12,4 10 5 46 25 WZW 1016,3 11 0 0,2
21.04.2018 11:00:00 15,0 11,3 25 13 40 22 ONO 1014,1 17 0 0,0
21.04.2018 10:00:00 15,0 11,6 35 19 49 27 ONO 1011,8 20 0 0,0
21.04.2018 09:00:00 15,0 11,3 40 22 59 32 ONO 1012,1 20 0 0,0
21.04.2018 08:00:00 14,2 11,7 44 24 56 30 ONO 1012,7 17 0 -
21.04.2018 07:00:00 14,0 11,7 26 14 35 19 NO 1014,6 10 0 2,2
21.04.2018 06:00:00 13,6 11,8 22 12 31 17 O 1015,1 4,7 0 1,0
21.04.2018 05:00:00 14,2 11,7 22 12 31 17 WZW 1016,5 13 0 0,0
21.04.2018 04:00:00 14,7 11,7 17 9 23 12 WNW 1015,1 14 0 0,0
21.04.2018 03:00:00 16,1 10,2 9 5 23 12 O 1015,0 20 0 0,0
21.04.2018 02:00:00 16,2 10,8 20 11 33 18 NO 1014,2 14 0 -
21.04.2018 01:00:00 16,5 11,0 24 13 31 17 NO 1014,2 20 0 0,0
21.04.2018 00:00:00 16,0 12,0 19 10 24 13 ONO 1014,3 13 0 0,0
20.04.2018 23:00:00 16,2 12,0 10 5 20 11 ONO 1015,0 17 0 0,0

tt = temperatuur
td = dauwpunt
ff = windsnelheid
fx = windstoten
dd = windrichting
ppp = luchtdruk
vv = zicht
sd = Zonneschijnduur
rr = neerslag

Weerstations in de omgeving